CAL255 ZUGY-NZAA

Flight info

Callsign CAL255
Flight time N/A
Altitude 35100
Route DAGVO1A DAGVO W682 LAGEX G586 SJG B330 AVPAM A599 POU B330 TAMOT/N0493F370 B330 BIGEX A583 AKOTA W3 IOO W7 LUMVI B473 SAMGE/N0487F390 B473 CS Y177 AKROM Z17 OVRON/N0478F410 A346 SALAG
Aircraft A359/H-SDE2E3GHIJ3J4J5LM1ORWXY/LB1D1

Departure

Time N/A
Airport Guiyang Longdongbao International Airport (ZUGY)

Arrival

Time 2026-05-07 03:06
Airport Auckland International Airport (NZAA)
Time Latitude Longitude Altitude Speed Heading
2026-05-07 00:14 -21.67818 150.88912 35162 ft 595 kts 128°
2026-05-07 00:14 -21.72681 150.96123 35162 ft 595 kts 128°
2026-05-07 00:15 -21.77540 151.03339 35161 ft 595 kts 128°
2026-05-07 00:15 -21.82411 151.10580 35162 ft 596 kts 128°
2026-05-07 00:16 -21.87234 151.17760 35163 ft 596 kts 128°
2026-05-07 00:16 -21.92095 151.25005 35161 ft 596 kts 128°
2026-05-07 00:17 -21.96946 151.32247 35163 ft 597 kts 128°
2026-05-07 00:17 -22.01805 151.39511 35161 ft 597 kts 128°
2026-05-07 00:18 -22.06664 151.46783 35159 ft 597 kts 128°
2026-05-07 00:18 -22.11513 151.54049 35160 ft 597 kts 128°
2026-05-07 00:19 -22.16365 151.61332 35157 ft 597 kts 128°
2026-05-07 00:19 -22.21181 151.68568 35159 ft 597 kts 128°
2026-05-07 00:20 -22.26037 151.75876 35162 ft 598 kts 128°
2026-05-07 00:20 -22.30862 151.83146 35161 ft 598 kts 128°
2026-05-07 00:21 -22.35704 151.90452 35158 ft 598 kts 128°
2026-05-07 00:21 -22.40551 151.97776 35157 ft 599 kts 128°
2026-05-07 00:22 -22.45409 152.05126 35157 ft 599 kts 128°
2026-05-07 00:22 -22.50249 152.12461 35154 ft 599 kts 128°
2026-05-07 00:23 -22.55064 152.19766 35157 ft 599 kts 128°
2026-05-07 00:23 -22.59901 152.27116 35157 ft 599 kts 128°
2026-05-07 00:24 -22.64737 152.34472 35156 ft 600 kts 128°
2026-05-07 00:24 -22.69548 152.41804 35158 ft 600 kts 128°
2026-05-07 00:25 -22.74387 152.49187 35157 ft 600 kts 128°
2026-05-07 00:25 -22.79229 152.56585 35157 ft 601 kts 128°
2026-05-07 00:26 -22.84030 152.63931 35158 ft 601 kts 128°
2026-05-07 00:26 -22.88866 152.71341 35157 ft 601 kts 128°
2026-05-07 00:27 -22.93698 152.78756 35154 ft 601 kts 128°
2026-05-07 00:27 -22.98506 152.86144 35155 ft 602 kts 128°
2026-05-07 00:28 -23.03338 152.93579 35153 ft 602 kts 128°
2026-05-07 00:28 -23.08162 153.01014 35157 ft 602 kts 128°
2026-05-07 00:29 -23.12989 153.08463 35159 ft 602 kts 128°
2026-05-07 00:30 -23.22597 153.23323 35158 ft 603 kts 128°
2026-05-07 00:30 -23.27422 153.30801 35157 ft 603 kts 128°
2026-05-07 00:31 -23.32239 153.38278 35157 ft 603 kts 128°
2026-05-07 00:31 -23.37054 153.45763 35155 ft 603 kts 128°
2026-05-07 00:32 -23.41867 153.53257 35155 ft 603 kts 128°
2026-05-07 00:32 -23.46671 153.60746 35152 ft 603 kts 128°
2026-05-07 00:33 -23.51475 153.68247 35153 ft 603 kts 128°
2026-05-07 00:33 -23.56251 153.75715 35156 ft 604 kts 128°
2026-05-07 00:34 -23.61047 153.83225 35155 ft 604 kts 128°
2026-05-07 00:34 -23.65851 153.90760 35155 ft 604 kts 128°
2026-05-07 00:35 -23.70655 153.98305 35155 ft 604 kts 128°
2026-05-07 00:35 -23.75450 154.05847 35154 ft 605 kts 128°
2026-05-07 00:36 -23.80210 154.13346 35156 ft 604 kts 128°
2026-05-07 00:36 -23.85002 154.20907 35154 ft 605 kts 128°
2026-05-07 00:37 -23.89838 154.28432 35158 ft 603 kts 131°
2026-05-07 00:37 -23.95110 154.35468 35144 ft 600 kts 135°
2026-05-07 00:38 -24.00550 154.42397 35151 ft 601 kts 135°
2026-05-07 00:38 -24.05924 154.49418 35161 ft 601 kts 134°
2026-05-07 00:39 -24.11228 154.56504 35154 ft 602 kts 133°
2026-05-07 00:39 -24.16487 154.63572 35151 ft 602 kts 133°
2026-05-07 00:40 -24.21779 154.70683 35151 ft 602 kts 133°
2026-05-07 00:40 -24.27067 154.77789 35154 ft 601 kts 133°
2026-05-07 00:41 -24.32354 154.84899 35154 ft 601 kts 133°
2026-05-07 00:41 -24.37644 154.92023 35154 ft 601 kts 133°
2026-05-07 00:42 -24.42894 154.99107 35156 ft 601 kts 133°
2026-05-07 00:42 -24.48169 155.06234 35157 ft 601 kts 133°
2026-05-07 00:43 -24.53442 155.13368 35154 ft 601 kts 133°
2026-05-07 00:43 -24.58716 155.20515 35157 ft 601 kts 133°
2026-05-07 00:44 -24.63982 155.27662 35159 ft 601 kts 133°
2026-05-07 00:44 -24.69251 155.34823 35154 ft 601 kts 133°
2026-05-07 00:45 -24.74503 155.41972 35158 ft 601 kts 133°
2026-05-07 00:45 -24.79728 155.49095 35159 ft 601 kts 133°
2026-05-07 00:46 -24.84975 155.56258 35154 ft 601 kts 133°
2026-05-07 00:46 -24.90219 155.63428 35158 ft 601 kts 133°
2026-05-07 00:47 -24.95463 155.70609 35156 ft 600 kts 134°
2026-05-07 00:47 -25.00699 155.77790 35153 ft 600 kts 134°
2026-05-07 00:48 -25.05903 155.84937 35158 ft 600 kts 134°
2026-05-07 00:48 -25.11130 155.92126 35161 ft 600 kts 133°
2026-05-07 00:49 -25.16347 155.99314 35155 ft 600 kts 133°
2026-05-07 00:49 -25.21570 156.06520 35163 ft 600 kts 133°
2026-05-07 00:50 -25.26782 156.13722 35157 ft 599 kts 133°
2026-05-07 00:50 -25.31105 156.19705 35157 ft 599 kts 133°
2026-05-07 00:51 -25.37147 156.28078 35153 ft 599 kts 133°
2026-05-07 00:51 -25.41500 156.34120 35167 ft 599 kts 133°
2026-05-07 00:52 -25.46693 156.41338 35173 ft 599 kts 133°
2026-05-07 00:52 -25.51879 156.48558 35163 ft 598 kts 133°
2026-05-07 00:53 -25.57031 156.55742 35161 ft 598 kts 133°
2026-05-07 00:53 -25.62202 156.62961 35160 ft 598 kts 133°
2026-05-07 00:54 -25.67369 156.70189 35162 ft 598 kts 133°
2026-05-07 00:54 -25.72531 156.77419 35162 ft 597 kts 133°
2026-05-07 00:55 -25.77700 156.84671 35161 ft 597 kts 133°
2026-05-07 00:55 -25.82813 156.91855 35161 ft 597 kts 133°
2026-05-07 00:56 -25.87971 156.99115 35158 ft 597 kts 133°
2026-05-07 00:56 -25.93111 157.06360 35162 ft 597 kts 133°
2026-05-07 00:57 -25.98249 157.13613 35153 ft 597 kts 133°
2026-05-07 00:57 -26.03389 157.20880 35155 ft 597 kts 133°
2026-05-07 00:58 -26.08493 157.28109 35156 ft 597 kts 133°
2026-05-07 00:58 -26.13616 157.35377 35156 ft 597 kts 133°
2026-05-07 00:59 -26.21305 157.46306 35154 ft 597 kts 133°
2026-05-07 01:00 -26.26389 157.53546 35155 ft 597 kts 133°
2026-05-07 01:00 -26.31504 157.60841 35154 ft 597 kts 133°
2026-05-07 01:01 -26.36632 157.68168 35155 ft 598 kts 133°
2026-05-07 01:01 -26.41753 157.75495 35154 ft 598 kts 133°
2026-05-07 01:02 -26.46835 157.82779 35152 ft 599 kts 133°
2026-05-07 01:02 -26.51961 157.90138 35157 ft 599 kts 133°
2026-05-07 01:03 -26.57075 157.97491 35161 ft 600 kts 133°
2026-05-07 01:03 -26.62157 158.04812 35153 ft 600 kts 133°
2026-05-07 01:04 -26.67281 158.12206 35154 ft 600 kts 133°
2026-05-07 01:04 -26.72385 158.19583 35155 ft 600 kts 133°
2026-05-07 01:05 -26.77491 158.26974 35157 ft 600 kts 133°
2026-05-07 01:05 -26.82586 158.34361 35152 ft 600 kts 133°
2026-05-07 01:06 -26.87691 158.41687 35148 ft 596 kts 138°
2026-05-07 01:06 -26.93235 158.48550 35153 ft 593 kts 139°
2026-05-07 01:07 -26.98859 158.55313 35150 ft 592 kts 140°
2026-05-07 01:07 -27.04494 158.62065 35154 ft 592 kts 140°
2026-05-07 01:08 -27.10104 158.68821 35151 ft 592 kts 140°
2026-05-07 01:08 -27.15718 158.75609 35150 ft 591 kts 140°
2026-05-07 01:09 -27.21314 158.82390 35151 ft 591 kts 140°
2026-05-07 01:09 -27.26863 158.89123 35152 ft 590 kts 140°
2026-05-07 01:10 -27.32441 158.95901 35153 ft 590 kts 139°
2026-05-07 01:10 -27.38010 159.02679 35152 ft 589 kts 139°
2026-05-07 01:11 -27.43581 159.09470 35149 ft 589 kts 139°
2026-05-07 01:11 -27.49105 159.16213 35151 ft 589 kts 139°
2026-05-07 01:12 -27.54659 159.23005 35153 ft 589 kts 139°
2026-05-07 01:12 -27.60219 159.29814 35152 ft 589 kts 139°
2026-05-07 01:13 -27.65773 159.36626 35154 ft 590 kts 139°
2026-05-07 01:13 -27.71297 159.43415 35155 ft 590 kts 139°
2026-05-07 01:14 -27.76854 159.50254 35157 ft 591 kts 139°
2026-05-07 01:14 -27.82411 159.57104 35148 ft 591 kts 139°
2026-05-07 01:15 -27.87961 159.63958 35149 ft 591 kts 139°
2026-05-07 01:15 -27.93523 159.70837 35148 ft 592 kts 139°
2026-05-07 01:16 -27.99034 159.77665 35146 ft 592 kts 139°
2026-05-07 01:16 -28.04589 159.84557 35144 ft 592 kts 139°
2026-05-07 01:17 -28.10141 159.91458 35148 ft 593 kts 139°
2026-05-07 01:17 -28.15695 159.98372 35148 ft 593 kts 139°
2026-05-07 01:18 -28.21252 160.05302 35147 ft 593 kts 139°
2026-05-07 01:18 -28.26810 160.12246 35150 ft 594 kts 139°
2026-05-07 01:19 -28.32327 160.19149 35145 ft 594 kts 139°
2026-05-07 01:19 -28.37868 160.26093 35145 ft 594 kts 139°
2026-05-07 01:20 -28.43418 160.33062 35145 ft 594 kts 139°
2026-05-07 01:20 -28.48930 160.39994 35144 ft 594 kts 139°
2026-05-07 01:21 -28.54479 160.46984 35139 ft 594 kts 139°
2026-05-07 01:21 -28.60018 160.53973 35142 ft 594 kts 139°
2026-05-07 01:22 -28.65545 160.60960 35140 ft 593 kts 139°
2026-05-07 01:22 -28.71039 160.67916 35137 ft 593 kts 139°
2026-05-07 01:23 -28.76553 160.74910 35138 ft 593 kts 139°
2026-05-07 01:23 -28.82057 160.81902 35138 ft 592 kts 139°
2026-05-07 01:24 -28.87570 160.88918 35140 ft 592 kts 139°
2026-05-07 01:24 -28.93067 160.95926 35136 ft 592 kts 139°
2026-05-07 01:25 -28.98522 161.02892 35129 ft 592 kts 139°
2026-05-07 01:25 -29.04013 161.09916 35133 ft 592 kts 138°
2026-05-07 01:26 -29.09491 161.16935 35128 ft 591 kts 138°
2026-05-07 01:26 -29.14964 161.23960 35137 ft 591 kts 138°
2026-05-07 01:27 -29.20439 161.31001 35135 ft 591 kts 138°
2026-05-07 01:27 -29.25863 161.37988 35134 ft 591 kts 138°
2026-05-07 01:28 -29.31312 161.45019 35134 ft 590 kts 138°
2026-05-07 01:28 -29.36765 161.52067 35133 ft 590 kts 138°
2026-05-07 01:29 -29.42213 161.59121 35131 ft 590 kts 138°
2026-05-07 01:29 -29.47655 161.66180 35134 ft 590 kts 138°
2026-05-07 01:30 -29.53094 161.73247 35131 ft 590 kts 138°
2026-05-07 01:30 -29.58491 161.80273 35131 ft 590 kts 138°
2026-05-07 01:31 -29.63932 161.87367 35130 ft 590 kts 138°
2026-05-07 01:31 -29.69338 161.94430 35131 ft 590 kts 138°
2026-05-07 01:32 -29.74769 162.01537 35131 ft 590 kts 138°
2026-05-07 01:32 -29.80190 162.08644 35129 ft 590 kts 137°
2026-05-07 01:33 -29.85604 162.15755 35129 ft 590 kts 137°
2026-05-07 01:33 -29.91015 162.22874 35132 ft 590 kts 137°
2026-05-07 01:34 -29.96419 162.29997 35127 ft 590 kts 137°
2026-05-07 01:34 -30.01791 162.37090 35129 ft 590 kts 137°
2026-05-07 01:35 -30.07189 162.44230 35128 ft 590 kts 137°
2026-05-07 01:35 -30.12590 162.51386 35129 ft 589 kts 137°
2026-05-07 01:36 -30.17946 162.58498 35127 ft 589 kts 137°
2026-05-07 01:36 -30.23324 162.65651 35128 ft 589 kts 137°
2026-05-07 01:37 -30.28694 162.72805 35129 ft 588 kts 137°
2026-05-07 01:37 -30.34027 162.79924 35130 ft 588 kts 137°
2026-05-07 01:38 -30.39381 162.87083 35130 ft 588 kts 137°
2026-05-07 01:38 -30.44738 162.94260 35127 ft 588 kts 137°
2026-05-07 01:39 -30.49883 163.01652 35129 ft 594 kts 130°
2026-05-07 01:39 -30.53717 163.08259 35126 ft 594 kts 128°
2026-05-07 01:40 -30.58215 163.16322 35129 ft 594 kts 127°
2026-05-07 01:40 -30.62689 163.24408 35128 ft 593 kts 127°
2026-05-07 01:41 -30.67138 163.32419 35128 ft 593 kts 127°
2026-05-07 01:41 -30.71615 163.40466 35129 ft 592 kts 127°
2026-05-07 01:42 -30.76075 163.48493 35131 ft 591 kts 127°
2026-05-07 01:42 -30.80538 163.56546 35130 ft 591 kts 127°
2026-05-07 01:43 -30.84985 163.64589 35135 ft 590 kts 127°
2026-05-07 01:43 -30.89419 163.72624 35131 ft 589 kts 127°
2026-05-07 01:44 -30.93815 163.80608 35134 ft 588 kts 127°
2026-05-07 01:44 -30.98219 163.88621 35136 ft 587 kts 127°
2026-05-07 01:45 -31.02623 163.96651 35135 ft 586 kts 127°
2026-05-07 01:45 -31.07009 164.04666 35140 ft 585 kts 126°
2026-05-07 01:46 -31.11379 164.12666 35135 ft 584 kts 126°
2026-05-07 01:46 -31.15716 164.20622 35136 ft 583 kts 126°
2026-05-07 01:47 -31.20060 164.28609 35138 ft 582 kts 126°
2026-05-07 01:47 -31.24398 164.36599 35142 ft 581 kts 126°
2026-05-07 01:48 -31.28717 164.44572 35141 ft 580 kts 126°
2026-05-07 01:48 -31.33034 164.52557 35139 ft 580 kts 126°
2026-05-07 01:49 -31.37339 164.60538 35142 ft 579 kts 126°
2026-05-07 01:49 -31.41605 164.68460 35142 ft 578 kts 125°
2026-05-07 01:50 -31.45878 164.76413 35140 ft 577 kts 125°
2026-05-07 01:50 -31.50177 164.84433 35143 ft 577 kts 125°
2026-05-07 01:51 -31.54417 164.92356 35146 ft 576 kts 125°
2026-05-07 01:51 -31.58669 165.00318 35145 ft 576 kts 125°
2026-05-07 01:52 -31.62921 165.08296 35150 ft 575 kts 124°
2026-05-07 01:52 -31.67151 165.16254 35150 ft 575 kts 124°
2026-05-07 01:53 -31.71381 165.24226 35151 ft 574 kts 124°
2026-05-07 01:53 -31.75598 165.32190 35153 ft 574 kts 124°
2026-05-07 01:54 -31.79778 165.40100 35153 ft 573 kts 124°
2026-05-07 01:54 -31.83986 165.48078 35159 ft 573 kts 124°
2026-05-07 01:55 -31.88176 165.56041 35160 ft 572 kts 124°
2026-05-07 01:55 -31.92360 165.64011 35169 ft 571 kts 124°
2026-05-07 01:56 -31.96531 165.71969 35152 ft 570 kts 124°
2026-05-07 01:56 -32.00687 165.79917 35158 ft 569 kts 123°
2026-05-07 01:57 -32.04839 165.87873 35159 ft 569 kts 123°
2026-05-07 01:57 -32.08951 165.95770 35163 ft 568 kts 123°
2026-05-07 01:58 -32.13081 166.03717 35167 ft 568 kts 123°
2026-05-07 01:58 -32.17211 166.11682 35159 ft 568 kts 123°
2026-05-07 01:59 -32.21326 166.19635 35162 ft 568 kts 123°
2026-05-07 01:59 -32.25445 166.27610 35171 ft 568 kts 123°
2026-05-07 02:00 -32.29530 166.35540 35171 ft 568 kts 123°
2026-05-07 02:00 -32.33628 166.43511 35165 ft 567 kts 123°
2026-05-07 02:01 -32.37724 166.51494 35175 ft 568 kts 123°
2026-05-07 02:01 -32.41375 166.58624 35173 ft 568 kts 123°
2026-05-07 02:02 -32.45329 166.66362 35168 ft 568 kts 123°
2026-05-07 02:02 -32.49415 166.74384 35177 ft 568 kts 123°
2026-05-07 02:03 -32.53496 166.82408 35176 ft 568 kts 123°
2026-05-07 02:03 -32.57564 166.90422 35177 ft 567 kts 123°
2026-05-07 02:04 -32.61599 166.98390 35175 ft 566 kts 123°
2026-05-07 02:04 -32.65657 167.06420 35178 ft 565 kts 123°
2026-05-07 02:05 -32.69699 167.14436 35179 ft 565 kts 123°
2026-05-07 02:05 -32.73721 167.22429 35177 ft 564 kts 123°
2026-05-07 02:06 -32.77744 167.30442 35180 ft 564 kts 123°
2026-05-07 02:06 -32.81756 167.38451 35182 ft 564 kts 123°
2026-05-07 02:07 -32.85740 167.46420 35183 ft 563 kts 122°
2026-05-07 02:07 -32.91736 167.58447 35184 ft 563 kts 122°
2026-05-07 02:08 -32.95724 167.66468 35184 ft 562 kts 122°
2026-05-07 02:08 -32.99675 167.74433 35189 ft 562 kts 122°
2026-05-07 02:09 -33.03647 167.82457 35190 ft 561 kts 122°
2026-05-07 02:09 -33.07611 167.90482 35190 ft 561 kts 122°
2026-05-07 02:10 -33.11564 167.98503 35188 ft 560 kts 122°
2026-05-07 02:10 -33.15510 168.06527 35192 ft 560 kts 122°
2026-05-07 02:11 -33.19444 168.14546 35193 ft 559 kts 122°
2026-05-07 02:11 -33.23349 168.22522 35196 ft 559 kts 122°
2026-05-07 02:12 -33.27274 168.30556 35192 ft 559 kts 122°
2026-05-07 02:12 -33.31196 168.38601 35200 ft 558 kts 122°
2026-05-07 02:13 -33.35071 168.46568 35200 ft 558 kts 122°
2026-05-07 02:13 -33.38962 168.54586 35201 ft 557 kts 122°
2026-05-07 02:14 -33.42851 168.62619 35203 ft 557 kts 121°
2026-05-07 02:14 -33.46729 168.70645 35202 ft 557 kts 121°
2026-05-07 02:15 -33.50605 168.78686 35208 ft 556 kts 121°
2026-05-07 02:15 -33.54461 168.86703 35208 ft 555 kts 121°
2026-05-07 02:16 -33.58313 168.94730 35207 ft 555 kts 121°
2026-05-07 02:16 -33.62160 169.02764 35209 ft 554 kts 121°
2026-05-07 02:17 -33.65993 169.10787 35210 ft 554 kts 121°
2026-05-07 02:17 -33.69792 169.18758 35209 ft 553 kts 121°
2026-05-07 02:18 -33.73610 169.26784 35214 ft 553 kts 121°
2026-05-07 02:18 -33.77418 169.34809 35217 ft 552 kts 121°
2026-05-07 02:19 -33.81220 169.42839 35220 ft 551 kts 121°
2026-05-07 02:19 -33.85008 169.50856 35217 ft 551 kts 121°
2026-05-07 02:20 -33.88793 169.58888 35222 ft 550 kts 121°
2026-05-07 02:20 -33.92560 169.66896 35224 ft 550 kts 121°
2026-05-07 02:21 -33.96298 169.74864 35224 ft 549 kts 121°
2026-05-07 02:21 -34.00055 169.82887 35226 ft 549 kts 121°
2026-05-07 02:22 -34.03799 169.90904 35227 ft 548 kts 121°
2026-05-07 02:22 -34.07537 169.98924 35234 ft 548 kts 120°
2026-05-07 02:23 -34.11267 170.06945 35232 ft 548 kts 120°
2026-05-07 02:23 -34.14981 170.14948 35157 ft 540 kts 120°
2026-05-07 02:24 -34.18656 170.22892 35235 ft 545 kts 120°
2026-05-07 02:24 -34.22424 170.30740 35242 ft 546 kts 120°
2026-05-07 02:25 -34.26061 170.38818 35239 ft 546 kts 120°
2026-05-07 02:25 -34.29716 170.46854 35241 ft 545 kts 120°
2026-05-07 02:26 -34.33390 170.54890 35246 ft 545 kts 120°
2026-05-07 02:26 -34.37059 170.62916 35247 ft 544 kts 120°
2026-05-07 02:27 -34.40105 170.69587 35248 ft 544 kts 120°
2026-05-07 02:27 -34.43763 170.77617 35250 ft 544 kts 120°
2026-05-07 02:28 -34.47416 170.85652 35251 ft 544 kts 120°
2026-05-07 02:28 -34.51033 170.93626 35254 ft 544 kts 120°
2026-05-07 02:29 -34.54675 171.01673 35256 ft 543 kts 120°
2026-05-07 02:29 -34.58308 171.09719 35262 ft 543 kts 120°
2026-05-07 02:30 -34.61934 171.17771 35260 ft 543 kts 120°
2026-05-07 02:30 -34.65550 171.25816 35261 ft 542 kts 120°
2026-05-07 02:31 -34.69159 171.33868 35263 ft 542 kts 119°
2026-05-07 02:31 -34.72740 171.41872 35263 ft 542 kts 119°
2026-05-07 02:32 -34.76339 171.49938 35266 ft 542 kts 119°
2026-05-07 02:32 -34.79930 171.58003 35269 ft 542 kts 119°
2026-05-07 02:33 -34.83516 171.66068 35272 ft 541 kts 119°
2026-05-07 02:33 -34.85643 171.69822 35284 ft 539 kts 133°
2026-05-07 02:33 -34.88198 171.73145 35273 ft 537 kts 136°
2026-05-07 02:34 -34.93437 171.79651 35274 ft 537 kts 136°
2026-05-07 02:34 -34.98615 171.86159 35274 ft 537 kts 136°
2026-05-07 02:35 -35.03805 171.92726 35273 ft 537 kts 135°
2026-05-07 02:35 -35.08982 171.99300 35278 ft 537 kts 135°
2026-05-07 02:36 -35.14156 172.05885 35278 ft 537 kts 135°
2026-05-07 02:36 -35.19290 172.12433 35277 ft 536 kts 135°
2026-05-07 02:37 -35.24449 172.19024 35284 ft 536 kts 135°
2026-05-07 02:37 -35.29601 172.25622 35282 ft 536 kts 135°
2026-05-07 02:38 -35.34757 172.32236 35284 ft 536 kts 135°
2026-05-07 02:38 -35.39907 172.38857 35286 ft 535 kts 135°
2026-05-07 02:39 -35.45012 172.45431 35286 ft 535 kts 135°
2026-05-07 02:39 -35.50147 172.52058 35286 ft 535 kts 135°
2026-05-07 02:40 -35.55279 172.58696 35291 ft 535 kts 135°
2026-05-07 02:40 -35.60399 172.65329 35288 ft 534 kts 135°
2026-05-07 02:41 -35.65509 172.71962 35286 ft 534 kts 135°
2026-05-07 02:41 -35.70599 172.78584 34933 ft 533 kts 135°
2026-05-07 02:42 -35.73143 172.81897 34547 ft 529 kts 134°
2026-05-07 02:42 -35.75636 172.85148 33693 ft 528 kts 134°
2026-05-07 02:42 -35.78179 172.88467 33086 ft 534 kts 134°
2026-05-07 02:42 -35.80733 172.91804 32639 ft 536 kts 134°
2026-05-07 02:43 -35.83261 172.95112 32166 ft 536 kts 134°
2026-05-07 02:43 -35.85849 172.98500 31515 ft 537 kts 134°
2026-05-07 02:43 -35.88416 173.01863 30822 ft 539 kts 134°
2026-05-07 02:43 -35.90991 173.05242 30223 ft 541 kts 134°
2026-05-07 02:44 -35.93555 173.08610 29568 ft 535 kts 134°
2026-05-07 02:44 -35.96089 173.11941 28993 ft 533 kts 134°
2026-05-07 02:44 -35.98610 173.15260 28406 ft 526 kts 134°
2026-05-07 02:44 -36.01109 173.18552 27848 ft 522 kts 134°
2026-05-07 02:45 -36.03582 173.21813 27288 ft 519 kts 133°
2026-05-07 02:45 -36.06041 173.25058 26701 ft 514 kts 133°
2026-05-07 02:45 -36.08464 173.28260 26139 ft 510 kts 133°
2026-05-07 02:45 -36.10864 173.31433 25571 ft 507 kts 133°
2026-05-07 02:46 -36.13237 173.34574 25004 ft 501 kts 133°
2026-05-07 02:46 -36.15628 173.37742 24443 ft 498 kts 133°
2026-05-07 02:46 -36.17986 173.40869 23864 ft 493 kts 133°
2026-05-07 02:46 -36.20319 173.43968 23185 ft 491 kts 133°
2026-05-07 02:47 -36.22637 173.47050 22489 ft 488 kts 133°
2026-05-07 02:47 -36.24856 173.50004 21776 ft 458 kts 134°
2026-05-07 02:47 -36.26954 173.52800 21072 ft 431 kts 134°
2026-05-07 02:47 -36.28946 173.55456 20381 ft 409 kts 134°
2026-05-07 02:48 -36.30853 173.58000 19723 ft 400 kts 134°
2026-05-07 02:48 -36.32741 173.60518 19066 ft 397 kts 134°
2026-05-07 02:48 -36.34614 173.63018 18416 ft 394 kts 134°
2026-05-07 02:48 -36.36478 173.65506 17683 ft 390 kts 134°
2026-05-07 02:49 -36.38307 173.67949 16968 ft 386 kts 134°
2026-05-07 02:49 -36.40128 173.70385 16270 ft 381 kts 134°
2026-05-07 02:49 -36.41969 173.72700 15593 ft 376 kts 137°
2026-05-07 02:49 -36.43859 173.74942 14917 ft 372 kts 137°
2026-05-07 02:50 -36.45692 173.77127 14265 ft 368 kts 137°
2026-05-07 02:50 -36.47446 173.79235 13610 ft 364 kts 136°
2026-05-07 02:50 -36.49198 173.81352 12912 ft 361 kts 136°
2026-05-07 02:50 -36.50984 173.83518 12205 ft 358 kts 136°
2026-05-07 02:51 -36.52764 173.85682 11531 ft 355 kts 135°
2026-05-07 02:51 -36.54498 173.87792 11112 ft 353 kts 135°
2026-05-07 02:51 -36.56258 173.89938 10973 ft 355 kts 135°
2026-05-07 02:51 -36.58011 173.92077 10958 ft 350 kts 135°
2026-05-07 02:52 -36.59743 173.94193 10954 ft 348 kts 135°
2026-05-07 02:52 -36.61473 173.96311 10956 ft 348 kts 135°
2026-05-07 02:52 -36.63201 173.98430 10920 ft 348 kts 135°
2026-05-07 02:52 -36.64928 174.00538 10587 ft 347 kts 135°
2026-05-07 02:53 -36.66609 174.02592 10166 ft 331 kts 135°
2026-05-07 02:53 -36.68213 174.04553 9696 ft 313 kts 134°
2026-05-07 02:53 -36.69755 174.06444 9225 ft 311 kts 134°
2026-05-07 02:53 -36.71298 174.08338 8780 ft 310 kts 134°
2026-05-07 02:54 -36.72834 174.10224 8333 ft 309 kts 134°
2026-05-07 02:54 -36.74343 174.12078 7899 ft 308 kts 134°
2026-05-07 02:54 -36.75857 174.13938 7448 ft 306 kts 134°
2026-05-07 02:54 -36.77375 174.15804 7084 ft 302 kts 134°
2026-05-07 02:55 -36.78846 174.17612 6972 ft 292 kts 134°
2026-05-07 02:55 -36.80295 174.19396 6952 ft 293 kts 134°
2026-05-07 02:55 -36.81747 174.21184 6821 ft 293 kts 134°
2026-05-07 02:55 -36.83193 174.22967 6702 ft 291 kts 134°
2026-05-07 02:56 -36.84614 174.24719 6570 ft 283 kts 134°
2026-05-07 02:56 -36.86009 174.26449 6336 ft 280 kts 134°
2026-05-07 02:56 -36.87067 174.28427 6025 ft 274 kts 105°
2026-05-07 02:56 -36.87692 174.30661 5702 ft 274 kts 115°
2026-05-07 02:57 -36.88983 174.32383 5420 ft 277 kts 147°
2026-05-07 02:57 -36.90637 174.33606 5142 ft 277 kts 147°
2026-05-07 02:57 -36.92218 174.34928 4851 ft 277 kts 142°
2026-05-07 02:57 -36.93742 174.36433 4533 ft 275 kts 138°
2026-05-07 02:58 -36.95181 174.38008 4233 ft 274 kts 135°
2026-05-07 02:58 -36.96557 174.39603 4111 ft 273 kts 134°
2026-05-07 02:58 -36.97951 174.41273 4170 ft 280 kts 133°
2026-05-07 02:58 -36.99357 174.42984 4180 ft 282 kts 133°
2026-05-07 02:59 -37.00760 174.44706 4090 ft 280 kts 133°
2026-05-07 02:59 -37.02126 174.46388 3985 ft 270 kts 132°
2026-05-07 02:59 -37.03433 174.48012 3975 ft 258 kts 132°
2026-05-07 02:59 -37.04679 174.49553 3959 ft 245 kts 132°
2026-05-07 03:00 -37.05851 174.51005 3857 ft 234 kts 131°
2026-05-07 03:00 -37.06966 174.52424 3814 ft 220 kts 128°
2026-05-07 03:00 -37.07520 174.54046 3772 ft 192 kts 91°
2026-05-07 03:00 -37.07519 174.55653 3638 ft 180 kts 72°
2026-05-07 03:01 -37.07142 174.57104 3400 ft 171 kts 62°
2026-05-07 03:01 -37.06741 174.58466 3132 ft 161 kts 64°
2026-05-07 03:01 -37.06397 174.59753 2911 ft 151 kts 64°
2026-05-07 03:01 -37.06073 174.60939 2713 ft 137 kts 63°
2026-05-07 03:02 -37.05784 174.62001 2579 ft 124 kts 63°
2026-05-07 03:02 -37.05505 174.63011 2404 ft 123 kts 62°
2026-05-07 03:02 -37.05218 174.64035 2184 ft 124 kts 64°
2026-05-07 03:02 -37.04942 174.65041 2073 ft 120 kts 63°
2026-05-07 03:03 -37.04667 174.66035 1948 ft 122 kts 64°
2026-05-07 03:03 -37.04389 174.67045 1722 ft 123 kts 63°
2026-05-07 03:03 -37.04114 174.68044 1503 ft 121 kts 63°
2026-05-07 03:03 -37.03838 174.69047 1352 ft 123 kts 63°
2026-05-07 03:04 -37.03560 174.70058 1179 ft 121 kts 63°
2026-05-07 03:04 -37.03286 174.71046 1005 ft 120 kts 65°
2026-05-07 03:04 -37.03014 174.72036 835 ft 120 kts 65°
2026-05-07 03:04 -37.02752 174.72993 758 ft 116 kts 65°
2026-05-07 03:05 -37.02488 174.73947 655 ft 117 kts 66°
2026-05-07 03:05 -37.02217 174.74930 427 ft 121 kts 69°
2026-05-07 03:05 -37.01950 174.75906 257 ft 116 kts 66°
2026-05-07 03:05 -37.01690 174.76850 93 ft 115 kts 67°
2026-05-07 03:06 -37.01431 174.77781 48 ft 105 kts 72°
2026-05-07 03:06 -37.01270 174.78382 46 ft 32 kts 72°
2026-05-07 03:06 -37.01256 174.78438 46 ft 8 kts 71°
2026-05-07 03:06 -37.01198 174.78640 46 ft 34 kts 70°
2026-05-07 03:07 -37.01125 174.78871 46 ft 27 kts 62°
2026-05-07 03:07 -37.00992 174.79032 45 ft 25 kts 46°
2026-05-07 03:07 -37.00919 174.79073 45 ft 6 kts 326°
2026-05-07 03:07 -37.00904 174.79015 45 ft 9 kts 267°
2026-05-07 03:08 -37.00929 174.78918 45 ft 14 kts 247°
2026-05-07 03:08 -37.00968 174.78779 46 ft 20 kts 251°
2026-05-07 03:08 -37.01016 174.78601 46 ft 23 kts 251°
2026-05-07 03:08 -37.01070 174.78395 46 ft 23 kts 259°
2026-05-07 03:09 -37.01013 174.78260 46 ft 16 kts 331°
2026-05-07 03:09 -37.00932 174.78152 44 ft 19 kts 298°
2026-05-07 03:09 -37.00843 174.78031 46 ft 20 kts 334°
2026-05-07 03:09 -37.00706 174.78033 46 ft 20 kts 18°
2026-05-07 03:10 -37.00613 174.78018 44 ft 11 kts 312°
2026-05-07 03:10 -37.00586 174.77957 46 ft 6 kts 302°
2026-05-07 03:10 -37.00566 174.77913 46 ft 5 kts 327°
2026-05-07 03:10 -37.00531 174.77894 46 ft 0 kts 340°
2026-05-07 03:11 -37.00528 174.77893 46 ft 1 kts 339°
2026-05-07 03:11 -37.00527 174.77892 46 ft 0 kts 339°